[[{"header":{"parameterUnit":"m.s-1","parameterCategory":1,"la1":30.2991,"la2":30.254,"lo1":-89.0895,"lo2":-89.0444,"dy":0.0017,"dx":0.0017,"nx":28,"ny":28,"refTime":"2025-08-30T09:00:00:Z","depth":0,"parameterNumber":2,"parameterNumberName":"U-component_of_WINDS"},"data":[0,0,0,0,0,0,0,0,0,0,0,0,0,0,0,0,0,0,0,0,0,0,0,0,0,0,0,0,0,0,0,0,0,0,0,0,0,0,0,0,0,0,0,0,0,0,0,0,0,0,0,0,0,0,0,0,0,0,-1.2257,-1.2256,0,-1.2213,-1.2212,-1.2212,-1.2182,-1.2181,-1.2181,-1.2181,-1.2135,-1.2134,-1.2133,0,0,0,0,0,0,0,0,0,0,0,0,0,-1.2315,-1.2314,-1.2257,-1.2256,-1.2256,-1.2213,-1.2212,-1.2212,-1.2182,-1.2181,-1.2181,-1.2181,-1.2135,-1.2134,-1.2133,0,0,0,0,0,0,0,0,0,0,0,0,0,-1.2282,-1.2314,-1.2257,-1.2236,-1.2233,-1.2213,-1.2212,-1.2211,-1.2182,-1.2181,-1.2181,-1.2181,-1.2136,-1.2134,-1.2133,-1.213,0,0,-1.2128,-1.2127,0,0,0,0,0,0,0,0,-1.2284,-1.228,-1.2239,-1.2237,-1.2234,-1.2202,-1.2216,-1.2184,-1.2182,-1.2201,-1.2181,-1.2181,-1.2158,-1.2154,-1.2147,-1.2128,-1.2126,-1.2128,-1.2127,-1.2126,-1.2126,0,0,0,0,0,0,0,-1.2287,-1.2282,-1.2239,-1.2239,-1.2236,-1.2228,-1.2223,-1.221,-1.2182,-1.22,-1.2197,-1.2193,-1.2156,-1.2148,-1.2145,-1.2125,-1.2128,-1.2127,-1.2126,-1.2125,-1.2102,-1.2103,0,0,0,0,0,0,-1.2292,-1.2284,-1.2241,-1.2238,-1.2259,-1.2228,-1.2222,-1.2213,-1.2182,-1.2177,-1.2193,-1.2191,-1.2151,-1.2147,-1.2144,-1.2139,-1.2126,-1.2125,-1.2124,-1.2102,-1.2102,-1.2103,0,0,0,0,0,0,-1.2294,-1.2289,-1.2243,-1.226,-1.2254,-1.2227,-1.2217,-1.2212,-1.2204,-1.2177,-1.2172,-1.219,-1.2151,-1.2146,-1.2134,-1.2137,-1.2124,-1.2123,-1.2102,-1.2102,-1.2103,-1.2129,0,0,0,0,0,0,-1.2295,-1.2289,-1.2288,-1.2261,-1.2253,-1.2234,-1.2217,-1.2212,-1.2202,-1.2199,-1.2173,-1.2168,-1.215,-1.2136,-1.2132,-1.2135,-1.2122,-1.2101,-1.2102,-1.2102,-1.2128,-1.2131,-1.2133,0,0,0,0,0,-1.2298,-1.2297,-1.2288,-1.2283,-1.2251,-1.2234,-1.2229,-1.2209,-1.2202,-1.2201,-1.2183,-1.2169,-1.2137,-1.2135,-1.213,-1.2132,-1.2101,-1.2102,-1.2102,-1.2127,-1.213,-1.2133,0,0,0,0,0,0,-1.2325,-1.2293,-1.2283,-1.2273,-1.2257,-1.2229,-1.2226,-1.2213,-1.2198,-1.2196,-1.2171,-1.2165,-1.2156,-1.2143,-1.2141,-1.2128,-1.2117,-1.2117,-1.2138,-1.214,-1.2143,-1.2147,-1.212,0,0,0,0,0,-1.233,-1.2319,-1.2291,-1.2285,-1.2278,-1.2253,-1.2245,-1.2231,-1.2213,-1.2205,-1.2187,-1.217,-1.2156,-1.2147,-1.2133,-1.2126,-1.212,-1.2125,-1.2127,-1.2129,-1.213,-1.2126,-1.2128,-1.2105,-1.2105,-1.2105,0,0,-1.234,-1.2321,-1.2315,-1.229,-1.2276,-1.2265,-1.2248,-1.2237,-1.2229,-1.2204,-1.2191,-1.2177,-1.2156,-1.2147,-1.2142,-1.2136,-1.2135,-1.213,-1.2132,-1.2131,-1.2127,-1.2129,-1.2131,-1.2105,-1.2105,-1.2105,0,0,-1.2352,-1.2337,-1.2331,-1.2317,-1.2295,-1.2279,-1.2278,-1.2252,-1.2242,-1.2229,-1.2211,-1.2201,-1.2177,-1.2163,-1.2153,-1.2162,-1.2149,-1.2158,-1.2171,-1.2168,-1.2169,-1.2171,-1.2175,-1.2177,-1.2158,-1.2158,-1.2158,0,-1.2368,-1.2351,-1.2329,-1.232,-1.231,-1.2287,-1.2281,-1.2268,-1.2243,-1.2237,-1.223,-1.2201,-1.2185,-1.2173,-1.2175,-1.2167,-1.2165,-1.2161,-1.2171,-1.2172,-1.2173,-1.2177,-1.2178,-1.216,-1.2159,-1.2159,-1.2159,0,-1.2371,-1.236,-1.2357,-1.2334,-1.2324,-1.2316,-1.2293,-1.2285,-1.2272,-1.2257,-1.2245,-1.2225,-1.2207,-1.2203,-1.219,-1.2189,-1.2186,-1.2176,-1.2164,-1.2177,-1.218,-1.2181,-1.2161,-1.2161,-1.2161,-1.216,0,0,-1.24,-1.2365,-1.2365,-1.2355,-1.2329,-1.232,-1.2312,-1.2294,-1.2288,-1.2272,-1.2264,-1.2246,-1.2236,-1.2224,-1.2209,-1.2206,-1.2216,-1.2196,-1.2195,-1.2202,-1.2216,-1.2225,-1.2227,-1.2207,-1.2207,-1.2207,-1.2218,0,-1.2409,-1.2393,-1.2374,-1.2364,-1.2354,-1.2333,-1.2325,-1.2309,-1.2295,-1.2284,-1.2268,-1.2256,-1.2243,-1.2237,-1.2233,-1.2216,-1.2219,-1.2214,-1.22,-1.22,-1.2207,-1.2228,-1.2237,-1.2248,-1.2219,-1.2219,-1.2219,0,-1.2419,-1.2404,-1.2394,-1.237,-1.2365,-1.2359,-1.2342,-1.2332,-1.2314,-1.2303,-1.2291,-1.2275,-1.2266,-1.2255,-1.2242,-1.224,-1.2233,-1.2224,-1.2224,-1.2222,-1.2211,-1.2228,-1.2251,-1.2254,-1.222,-1.222,-1.222,0,-1.2442,-1.2419,-1.2411,-1.2402,-1.2375,-1.2371,-1.2359,-1.234,-1.2332,-1.2317,-1.2311,-1.2295,-1.2287,-1.2275,-1.2255,-1.2249,-1.2245,-1.2232,-1.2237,-1.2237,-1.2237,-1.2238,-1.2261,-1.2231,-1.2231,-1.2231,-1.2231,0,-1.2455,-1.245,-1.2421,-1.2416,-1.241,-1.2387,-1.2382,-1.2368,-1.2352,-1.2344,-1.2324,-1.2317,-1.2291,-1.2281,-1.2265,-1.2258,-1.2254,-1.2246,-1.2242,-1.2248,-1.2249,-1.2244,-1.2243,-1.2231,-1.2231,-1.2231,-1.2231,0,-1.2481,-1.2461,-1.245,-1.2425,-1.2419,-1.2415,-1.2394,-1.2388,-1.2373,-1.2363,-1.2359,-1.2336,-1.2323,-1.2302,-1.2283,-1.2273,-1.2268,-1.2261,-1.2275,-1.2273,-1.2279,-1.2279,-1.23,-1.2302,-1.227,-1.2271,-1.2271,0,-1.2491,-1.2487,-1.2462,-1.2455,-1.2444,-1.2433,-1.2425,-1.2403,-1.2394,-1.2374,-1.2371,-1.2356,-1.2344,-1.2325,-1.2306,-1.2292,-1.2285,-1.2293,-1.2282,-1.2289,-1.2286,-1.2287,-1.2287,-1.2296,-1.2296,-1.2296,-1.2297,0,-1.2512,-1.2503,-1.2491,-1.2476,-1.2466,-1.2453,-1.2439,-1.2435,-1.241,-1.2402,-1.2389,-1.2379,-1.236,-1.2347,-1.233,-1.2318,-1.2304,-1.23,-1.2301,-1.2308,-1.2317,-1.2313,-1.2283,-1.23,-1.23,-1.2299,-1.2299,-1.2299,-1.2531,-1.2527,-1.2509,-1.2496,-1.2484,-1.2471,-1.2465,-1.245,-1.2438,-1.2422,-1.2409,-1.2397,-1.238,-1.2356,-1.2345,-1.2336,-1.2329,-1.2329,-1.233,-1.2331,-1.2334,-1.2317,-1.2332,-1.2332,-1.2332,-1.2332,-1.2332,0,-1.2552,-1.254,-1.2529,-1.251,-1.2501,-1.2488,-1.2472,-1.2465,-1.2455,-1.244,-1.2429,-1.2414,-1.2401,-1.2382,-1.2367,-1.2364,-1.2357,-1.2361,-1.2362,-1.236,-1.234,-1.2341,-1.2367,-1.2367,-1.2367,-1.2367,-1.2367,-1.2367,-1.2562,-1.2555,-1.2543,-1.2529,-1.2517,-1.2505,-1.2498,-1.2486,-1.2474,-1.246,-1.2449,-1.2436,-1.242,-1.2404,-1.2392,-1.2387,-1.2383,-1.2389,-1.2382,-1.2364,-1.2361,-1.2358,-1.2359,-1.2388,-1.2388,-1.2403,-1.2403,-1.2403]},{"header":{"parameterUnit":"m.s-1","parameterCategory":1,"la1":30.2991,"la2":30.254,"lo1":-89.0895,"lo2":-89.0444,"dy":0.0017,"dx":0.0017,"nx":28,"ny":28,"refTime":"2025-08-30T09:00:00:Z","depth":0,"parameterNumber":3,"parameterNumberName":"V-component_of_WINDS"},"data":[0,0,0,0,0,0,0,0,0,0,0,0,0,0,0,0,0,0,0,0,0,0,0,0,0,0,0,0,0,0,0,0,0,0,0,0,0,0,0,0,0,0,0,0,0,0,0,0,0,0,0,0,0,0,0,0,0,0,-0.5651,-0.5651,0,-0.5707,-0.5708,-0.5708,-0.5791,-0.5793,-0.5794,-0.5796,-0.585,-0.585,-0.585,0,0,0,0,0,0,0,0,0,0,0,0,0,-0.5612,-0.5613,-0.5651,-0.5651,-0.5652,-0.5707,-0.5708,-0.5708,-0.5791,-0.5793,-0.5795,-0.5796,-0.585,-0.585,-0.585,0,0,0,0,0,0,0,0,0,0,0,0,0,-0.5645,-0.5613,-0.5651,-0.57,-0.5705,-0.5707,-0.5708,-0.5709,-0.5791,-0.5793,-0.5795,-0.5797,-0.585,-0.585,-0.585,-0.5807,0,0,-0.585,-0.585,0,0,0,0,0,0,0,0,-0.5643,-0.5646,-0.5692,-0.5697,-0.5702,-0.5744,-0.5714,-0.5741,-0.579,-0.5758,-0.5796,-0.5798,-0.5813,-0.5816,-0.5822,-0.5809,-0.5812,-0.585,-0.585,-0.585,-0.585,0,0,0,0,0,0,0,-0.564,-0.5644,-0.5673,-0.5693,-0.5699,-0.5719,-0.5726,-0.572,-0.5772,-0.5761,-0.5767,-0.5773,-0.5816,-0.5821,-0.5823,-0.5812,-0.585,-0.585,-0.585,-0.585,-0.5769,-0.5767,0,0,0,0,0,0,-0.5631,-0.5642,-0.5671,-0.5675,-0.5677,-0.5717,-0.5725,-0.5729,-0.5773,-0.5781,-0.5771,-0.5776,-0.582,-0.5823,-0.5826,-0.578,-0.585,-0.585,-0.5851,-0.5771,-0.5769,-0.5766,0,0,0,0,0,0,-0.563,-0.5633,-0.5669,-0.566,-0.5666,-0.5716,-0.5719,-0.5728,-0.5734,-0.578,-0.579,-0.5767,-0.5822,-0.5826,-0.5811,-0.5783,-0.5851,-0.5851,-0.5774,-0.5771,-0.5767,-0.5686,0,0,0,0,0,0,-0.5629,-0.5632,-0.5617,-0.5659,-0.5666,-0.5654,-0.5717,-0.5728,-0.5735,-0.5742,-0.5779,-0.5787,-0.5824,-0.5811,-0.5812,-0.5784,-0.5851,-0.5777,-0.5772,-0.5769,-0.5691,-0.568,-0.567,0,0,0,0,0,-0.5627,-0.559,-0.5616,-0.5619,-0.5648,-0.5652,-0.5656,-0.57,-0.5732,-0.5717,-0.5746,-0.5786,-0.5785,-0.5809,-0.581,-0.5782,-0.5779,-0.5774,-0.5769,-0.5696,-0.5682,-0.5671,0,0,0,0,0,0,-0.5542,-0.5597,-0.5625,-0.5601,-0.5622,-0.5666,-0.5648,-0.5684,-0.5695,-0.5702,-0.5755,-0.5762,-0.5742,-0.576,-0.5785,-0.5743,-0.5788,-0.5783,-0.5732,-0.572,-0.5709,-0.5706,-0.5851,0,0,0,0,0,-0.5521,-0.5521,-0.5568,-0.5542,-0.5551,-0.5598,-0.5601,-0.5634,-0.5656,-0.5665,-0.5694,-0.5713,-0.5718,-0.572,-0.5726,-0.5694,-0.5704,-0.5676,-0.5665,-0.5656,-0.5652,-0.5637,-0.5626,-0.575,-0.575,-0.575,0,0,-0.5476,-0.5506,-0.5503,-0.5526,-0.5546,-0.5544,-0.5604,-0.5599,-0.5599,-0.5664,-0.5653,-0.5675,-0.57,-0.5677,-0.5669,-0.5692,-0.562,-0.565,-0.5643,-0.5643,-0.5631,-0.5619,-0.5609,-0.5746,-0.5747,-0.5748,0,0,-0.5395,-0.5417,-0.5399,-0.5418,-0.5447,-0.5479,-0.5474,-0.5514,-0.5531,-0.5521,-0.5571,-0.557,-0.5576,-0.5593,-0.5602,-0.5528,-0.5565,-0.5528,-0.5474,-0.546,-0.545,-0.5442,-0.5416,-0.5406,-0.5523,-0.5523,-0.5523,0,-0.5336,-0.5336,-0.5385,-0.5378,-0.5387,-0.5447,-0.5429,-0.5445,-0.5474,-0.5478,-0.5505,-0.5515,-0.5536,-0.5519,-0.5501,-0.5506,-0.5503,-0.5525,-0.5448,-0.544,-0.5433,-0.5409,-0.5399,-0.5519,-0.5519,-0.552,-0.552,0,-0.5263,-0.5262,-0.5243,-0.5272,-0.5279,-0.5266,-0.5313,-0.5314,-0.5345,-0.5374,-0.5363,-0.5391,-0.5405,-0.5403,-0.5433,-0.539,-0.5404,-0.5438,-0.5484,-0.5415,-0.5394,-0.5386,-0.5512,-0.5514,-0.5515,-0.5516,0,0,-0.5129,-0.5186,-0.5179,-0.5193,-0.523,-0.5231,-0.522,-0.5236,-0.5236,-0.5254,-0.5247,-0.5251,-0.5284,-0.5294,-0.5326,-0.5313,-0.5255,-0.5349,-0.5351,-0.5332,-0.521,-0.5186,-0.5174,-0.5279,-0.5278,-0.5277,-0.5209,0,-0.5056,-0.5044,-0.5088,-0.5064,-0.5064,-0.5122,-0.5113,-0.5135,-0.5161,-0.5164,-0.5193,-0.5196,-0.5238,-0.5244,-0.5234,-0.5264,-0.5231,-0.5269,-0.5274,-0.5273,-0.5267,-0.5163,-0.5137,-0.5072,-0.5201,-0.5199,-0.5198,0,-0.4969,-0.4985,-0.4961,-0.5001,-0.5003,-0.4995,-0.5013,-0.5015,-0.5041,-0.5061,-0.5073,-0.5112,-0.5104,-0.5148,-0.5139,-0.5164,-0.5168,-0.5183,-0.5181,-0.5184,-0.5232,-0.5164,-0.5052,-0.5042,-0.5185,-0.5187,-0.5187,0,-0.4876,-0.4891,-0.4879,-0.489,-0.4935,-0.4928,-0.4947,-0.4975,-0.4982,-0.4997,-0.5002,-0.5015,-0.5022,-0.5032,-0.5073,-0.5101,-0.5059,-0.5106,-0.5076,-0.5075,-0.5065,-0.5066,-0.4953,-0.5066,-0.5066,-0.5066,-0.5066,0,-0.4791,-0.4774,-0.4839,-0.4831,-0.4815,-0.4865,-0.4847,-0.4871,-0.4895,-0.4894,-0.4943,-0.494,-0.4994,-0.4997,-0.5029,-0.5017,-0.502,-0.5036,-0.5045,-0.5032,-0.503,-0.5036,-0.5042,-0.5063,-0.5064,-0.5064,-0.5065,0,-0.4685,-0.4727,-0.4718,-0.4763,-0.4774,-0.4759,-0.4797,-0.4792,-0.4822,-0.4819,-0.4821,-0.4868,-0.4874,-0.4916,-0.493,-0.4952,-0.4929,-0.4946,-0.4921,-0.4927,-0.4895,-0.4898,-0.4783,-0.4771,-0.489,-0.4889,-0.4888,0,-0.4628,-0.4617,-0.4661,-0.4664,-0.4681,-0.4685,-0.4693,-0.4741,-0.4747,-0.4776,-0.4767,-0.4778,-0.4789,-0.4796,-0.4831,-0.4843,-0.4861,-0.482,-0.4863,-0.4852,-0.4862,-0.4863,-0.4863,-0.4811,-0.481,-0.4808,-0.4807,0,-0.4523,-0.4545,-0.4555,-0.4572,-0.458,-0.4595,-0.4614,-0.4613,-0.4667,-0.4671,-0.4679,-0.4687,-0.4703,-0.4713,-0.4732,-0.475,-0.4788,-0.4793,-0.4788,-0.4775,-0.4762,-0.477,-0.4897,-0.4796,-0.4797,-0.4798,-0.4799,-0.4799,-0.4442,-0.4435,-0.4466,-0.4475,-0.4494,-0.451,-0.4508,-0.4538,-0.4546,-0.4564,-0.4592,-0.4596,-0.4623,-0.4651,-0.4667,-0.467,-0.4692,-0.4683,-0.4681,-0.4678,-0.4672,-0.476,-0.4674,-0.4674,-0.4674,-0.4675,-0.4675,0,-0.4341,-0.4364,-0.4372,-0.4397,-0.4404,-0.444,-0.4462,-0.4466,-0.4469,-0.4491,-0.4501,-0.4511,-0.4521,-0.4556,-0.457,-0.4566,-0.4584,-0.4568,-0.457,-0.4574,-0.4651,-0.4656,-0.4554,-0.4554,-0.4554,-0.4554,-0.4554,-0.4554,-0.429,-0.4281,-0.4307,-0.4308,-0.4331,-0.4336,-0.4346,-0.4361,-0.438,-0.4388,-0.4397,-0.4421,-0.4449,-0.4465,-0.4476,-0.4486,-0.4489,-0.4468,-0.4484,-0.4556,-0.4568,-0.4579,-0.4584,-0.4468,-0.4468,-0.4406,-0.4406,-0.4405]}]]